Toluca Jose Maria, Mexico

10:16 PM CDT on September 19, 2017 (GMT -0500)
Lic Adolfo Lopez Mateos International

Weather History for MMTO - March, 2013

Change the Weather History Date:

Tuesday, March 5, 2013

  Actual Average Record
Temperature  
Mean Temperature 48 °F -  
Max Temperature 73 °F 71 °F 80 °F (2009)
Min Temperature 24 °F 36 °F 24 °F (2013)
Degree Days  
Heating Degree Days 16    
Moisture  
Dew Point 9 °F    
Average Humidity 30    
Maximum Humidity 69    
Minimum Humidity 4    
Precipitation  
Precipitation 0.00 in - - ()
Sea Level Pressure  
Sea Level Pressure 30.26 in    
Wind  
Wind Speed 4 mph ()    
Max Wind Speed 16 mph    
Max Gust Speed -    
Visibility 5.2 miles    
Events      
Averages and records for this station are not official NWS values.
T = Trace of Precipitation, MM = Missing Value Source: Averaged Metar Reports

Daily Weather History Graph

Daily Weather History Graph

Search for Another Location

Airport or City:

Trip Planner

Search our weather history database for the weather conditions in past years. The results will help you decide how hot, cold, wet, or windy it might be!

Date:

Astronomy

Mar. 05, 2013 Rise Set
Actual Time 6:54 AM CST 6:45 PM CST
Civil Twilight 6:32 AM CST 7:07 PM CST
Nautical Twilight 6:06 AM CST 7:32 PM CST
Astronomical Twilight 5:41 AM CST 7:58 PM CST
Moon 1:34 AM CST (3/5) 1:00 PM CST (3/5)
Length of Visible Light 12h 34m
Length of Day
11h 50m
Last Quarter, 40% of the Moon is Illuminated
Mar 5
Last Quarter
Mar 11
New
Mar 19
First Quarter
Mar 27
Full
Apr 2
Last Quarter

Hourly Weather History & Observations

Time (CST) Temp. Windchill Dew Point Humidity Pressure Visibility Wind Dir Wind Speed Gust Speed Precip Events Conditions
12:45 AM 37.4 °F - 12.2 °F 36% 30.40 in 4.0 mi Calm Calm - N/A   Clear
1:45 AM 33.8 °F - 14.0 °F 44% 30.38 in 3.0 mi Calm Calm - N/A   Haze
2:45 AM 32.0 °F 27.5 °F 15.8 °F 51% 29.98 in 4.0 mi ENE 4.6 mph - N/A   Clear
3:45 AM 32.0 °F - 15.8 °F 51% 30.38 in 4.0 mi Calm Calm - N/A   Clear
4:45 AM 28.4 °F 24.6 °F 15.8 °F 59% 30.38 in 4.0 mi SSE 3.5 mph - N/A   Clear
5:45 AM 28.4 °F - 17.6 °F 64% 30.05 in 3.0 mi Calm Calm - N/A   Clear
6:45 AM 24.8 °F 19.1 °F 15.8 °F 69% 30.43 in 4.0 mi NE 4.6 mph - N/A   Clear
7:51 AM 30.2 °F - 19.4 °F 64% 30.46 in 4.0 mi West 2.3 mph - N/A   Clear
8:42 AM 39.2 °F - 17.6 °F 42% 30.12 in 4.0 mi Calm Calm - N/A   Clear
9:45 AM 50.0 °F - 14.0 °F 24% 30.48 in 4.0 mi Calm Calm - N/A   Clear
10:44 AM 59.0 °F - 8.6 °F 14% 30.46 in 4.0 mi West 4.6 mph - N/A   Clear
11:42 AM 62.6 °F - 3.2 °F 9% 30.00 in 5.0 mi WNW 4.6 mph - N/A   Clear
12:49 PM 68.0 °F - -0.4 °F 7% 30.39 in 6.0 mi NW 9.2 mph - N/A   Clear
1:44 PM 71.6 °F - -7.6 °F 4% 30.36 in 7.0 mi ESE 9.2 mph - N/A   Clear
2:47 PM 73.4 °F - -13.0 °F 4% 29.87 in 7.0 mi East 11.5 mph - N/A   Clear
3:43 PM 71.6 °F - -13.0 °F 4% 30.34 in 7.0 mi East 15.0 mph - N/A   Clear
4:55 PM 71.6 °F - -7.6 °F 4% 30.33 in 7.0 mi NE 16.1 mph - N/A   Clear
5:40 PM 69.8 °F - -5.8 °F 5% 29.90 in 7.0 mi NE 12.7 mph - N/A   Clear
6:43 PM 62.6 °F - -2.2 °F 7% 30.34 in 7.0 mi East 4.6 mph - N/A   Clear
7:42 PM 59.0 °F - 5.0 °F 12% 30.39 in 6.0 mi East 9.2 mph - N/A   Clear
8:43 PM 55.4 °F - 24.8 °F 31% 30.04 in 6.0 mi East 15.0 mph - N/A   Clear
9:45 PM 51.8 °F - 24.8 °F 35% 30.46 in 6.0 mi ENE 11.5 mph - N/A   Clear
10:45 PM 50.0 °F - 24.8 °F 37% 30.46 in 6.0 mi ENE 12.7 mph - N/A   Clear
11:45 PM 48.2 °F - 23.0 °F 37% 29.95 in 6.0 mi NNE 4.6 mph - N/A   Clear